Terminal Aerodrome Forecast
Issued by NWS Billings, MT

Home | Current Version | Previous Version | Text Only | Print | Product List | Glossary Off
Versions: 1 2 3 4 5 6 7 8 9 10 11 12 13 14 15 16 17 18 19 20 21 22 23 24 25 26 27 28 29 30 31 32 33 34

311
FTUS45 KBYZ 240533
TAFMLS
TAF
KMLS 240533Z 2406/2506 15008KT P6SM FEW200
     FM241800 20012KT P6SM SCT200
     FM242200 30020G30KT P6SM BKN200=

USA.gov is the U.S. government's official web portal to all federal, state and local government web resources and services.